This is the latest recevied weather packets stored in our database for station/object KE8URB. If no packets are shown the sender has not sent any weather packets the latest 10 day(s).
| Time | Temp. | Humidity | Pressure | Rain* | Wind** | Luminosity | Snow |
|---|---|---|---|---|---|---|---|
| 1787768999 | 23.89° C | 68% | 1017.1 hPa | 0 mm | - | 111 W/m² | - |
| 1787768694 | 24.44° C | 69% | 1017.1 hPa | 0 mm | - | 130 W/m² | - |
| 1787768391 | 25° C | 64% | 1017 hPa | 0 mm | - | 86 W/m² | - |
| 1787768087 | 25° C | 67% | 1017.2 hPa | 0 mm | - | 105 W/m² | - |
| 1787767786 | 25° C | 65% | 1017.2 hPa | 0 mm | - | 92 W/m² | - |
| 1787767482 | 24.44° C | 68% | 1017.3 hPa | 0 mm | - | 88 W/m² | - |
| 1787767180 | 24.44° C | 67% | 1017.4 hPa | 0 mm | - | 109 W/m² | - |
| 1787766878 | 23.89° C | 68% | 1017.4 hPa | 0 mm | - | 110 W/m² | - |
| 1787766574 | 24.44° C | 71% | 1017.4 hPa | 0 mm | - | 106 W/m² | - |
| 1787766272 | 23.89° C | 69% | 1017.7 hPa | 0 mm | - | 95 W/m² | - |
| 1787765967 | 23.89° C | 69% | 1017.8 hPa | 0 mm | - | 88 W/m² | - |
| 1787765665 | 23.89° C | 69% | 1017.5 hPa | 0 mm | - | 88 W/m² | - |
| 1787765360 | 24.44° C | 69% | 1017.5 hPa | 0 mm | - | 110 W/m² | - |
| 1787765059 | 24.44° C | 67% | 1017.8 hPa | 0 mm | - | 130 W/m² | - |
| 1787764754 | 23.89° C | 71% | 1017.8 hPa | 0 mm | - | 127 W/m² | - |
| 1787764449 | 24.44° C | 73% | 1017.8 hPa | 0 mm | - | 110 W/m² | - |
| 1787764145 | 24.44° C | 67% | 1017.8 hPa | 0 mm | - | 107 W/m² | - |
| 1787763840 | 23.89° C | 67% | 1017.8 hPa | 0 mm | - | 99 W/m² | - |
| 1787763535 | 24.44° C | 71% | 1018 hPa | 0 mm | - | 80 W/m² | - |
| 1787763231 | 23.89° C | 70% | 1018.1 hPa | 0 mm | - | 88 W/m² | - |
| 1787762926 | 23.89° C | 69% | 1018 hPa | 0 mm | - | 77 W/m² | - |
| 1787762626 | 23.33° C | 71% | 1018.1 hPa | 0 mm | - | 78 W/m² | - |
| 1787762323 | 23.33° C | 71% | 1018.4 hPa | 0 mm | - | 77 W/m² | - |
| 1787762022 | 23.89° C | 70% | 1018.2 hPa | 0 mm | - | 88 W/m² | - |
| 1787761717 | 23.89° C | 70% | 1018.2 hPa | 0 mm | - | 171 W/m² | - |
* Rain latest hour (hover to see other rain measurements)
** Current wind speed in m/s (hover to see current wind gust speed)